Location: Holmbach
(49.5093°N, 8.8411°E)
Time: 20:51:51
(UTC+00:00)

TIMED - Pass Details

Date: 17 June 2025
Orbit: 585 x 586 km, 74.1° (Epoch: 16 July)

Event Time Altitude Azimuth Distance (km) Brightness Sun altitude
Exits shadow 23:10:20 35° 179° (S) 951 5.0 -17.0°
Maximum altitude 23:11:58 65° 110° (ESE) 647 4.5 -17.0°
Drops below altitude 10° 23:16:12 10° 29° (NNE) 1,920 8.0 -17.1°
Sets 23:18:27 0° 26° (NNE) 2,825 9.1 -17.1°
